Flag for Mauritania Weather past 2 weeks in Nouadhibou, Mauritania

Now
59 °F

Clear.


Feels Like: 57 °F
Forecast: 61 / 74 °F
Wind: 12 mph from Northeast

Location: Nouadhibou Airport

Current Time: Jan 26, 2015 at 7:18:46 AM

Latest Report: Jan 26, 2015 at 7:00 AM


Visibility: 5 mi

Pressure: 30.07 "Hg

Humidity: 68%

Dew point: 48 °F

Location of NouadhibouLocation

Historic Weather in Nouadhibou — Graph

°F

Nouadhibou temperature yesterday

Maximum temperature yesterday: 75 °F (at 3:00 PM)
Minimum temperature yesterday: 57 °F (at 3:00 AM)
Average temperature yesterday: 63 °F

Past Weeks' High & Low Weather Summary

 TemperatureHumidityPressure
High82 °F (Jan 16, 3:00 PM)94% (Jan 12, 11:00 PM)30.24 "Hg (Jan 12, 11:00 PM)
Low54 °F (Jan 18, 7:00 AM)16% (Jan 16, 3:00 PM)29.98 "Hg (Jan 11, 4:00 PM)
Average64 °F66%30.08 "Hg
* Reported Jan 11 6:00 AM — Jan 26 6:00 AM, Nouadhibou, Weather by CustomWeather, © 2014

Note: Actual official high and low records may vary slightly from our data, if they occured in-between our weather recording intervals... More about our weather records

Advertising

Nouadhibou weather history for previous 24 hours

 ConditionsComfort  
Time TempWeatherWind HumidityBarometerVisibility
6:00 AM
Jan 26
59 °FClear.14 mph72%30.04 "Hg5 mi
5:00 AM59 °FClear.16 mph77%30.04 "Hg5 mi
4:00 AM59 °FClear.16 mph72%30.07 "Hg5 mi
3:00 AM59 °FClear.16 mph77%30.04 "Hg5 mi
2:00 AM59 °FClear.18 mph77%30.04 "Hg5 mi
1:00 AM61 °FClear.18 mph77%30.07 "Hg5 mi
12:00 AM61 °FClear.16 mph77%30.07 "Hg5 mi
11:00 PM
Jan 25
61 °FClear.16 mph72%30.07 "Hg10 mi
10:00 PM63 °FClear.16 mph68%30.04 "Hg10 mi
9:00 PM63 °FClear.14 mph68%30.04 "Hg10 mi
8:00 PM64 °FClear.14 mph64%30.01 "Hg10 mi
7:00 PM66 °FClear.14 mph64%29.98 "Hg10 mi
6:00 PM66 °FSunny.14 mph68%29.98 "Hg10 mi
5:00 PM68 °FSunny.14 mph64%29.98 "Hg10 mi
4:00 PM70 °FSunny.14 mph60%29.98 "Hg10 mi
3:00 PM75 °FSunny.17 mph39%30.01 "Hg10 mi
2:00 PM72 °FSunny.18 mph47%30.04 "Hg10 mi
1:00 PM68 °FClear.18 mph53%30.07 "Hg5 mi
12:00 PM66 °FClear.21 mph60%30.09 "Hg5 mi
11:00 AM63 °FClear.21 mph68%30.09 "Hg5 mi
10:00 AM59 °FClear.22 mph72%30.09 "Hg5 mi
9:00 AM57 °FClear.23 mph77%30.07 "Hg5 mi
8:00 AM57 °FClear.22 mph77%30.07 "Hg5 mi
7:00 AM57 °FClear.21 mph77%30.07 "Hg5 mi
Weather by CustomWeather, © 2014

See weather overviewHow to use our weather pages